Weather History for Dayton, OH

Change the Weather History Date:

Saturday, June 22, 2013

  Actual Average Record
Temperature  
Mean Temperature 79 °F 72 °F  
Max Temperature 87 °F 82 °F 98 °F (1988)
Min Temperature 70 °F 63 °F 44 °F (1897)
Degree Days  
Heating Degree Days 0 0  
Month to date heating degree days 11 22  
Since 1 June heating degree days 11 22  
Since 1 July heating degree days 5457 5642  
Cooling Degree Days 14 8  
Month to date cooling degree days 126 123  
Year to date cooling degree days 257 193  
Since 1 June cooling degree days 126 123  
Growing Degree Days 28 (Base 50)    
Moisture  
Dew Point 68 °F    
Average Humidity 72    
Maximum Humidity 84    
Minimum Humidity 59    
Precipitation  
Precipitation 0.27 in 0.14 in 2.25 in (1969)
Month to date precipitation 2.44 3.09  
Year to date precipitation 16.74 20.13  
Snow  
Snow 0.00 in 0.00 in 0.00 in ()
Month to date snowfall 0.0 0.0  
Since 1 June snowfall 0.0 0.0  
Since 1 July snowfall 36.3 23.3  
Snow Depth 0.00 in    
Sea Level Pressure  
Sea Level Pressure 30.13 in    
Wind  
Wind Speed 7 mph (SSW)    
Max Wind Speed 22 mph    
Max Gust Speed 26 mph    
Visibility 9 miles    
Events Rain , Thunderstorm    
T = Trace of Precipitation, MM = Missing Value Source: NWS Daily Summary

Daily Weather History Graph

Daily Weather History Graph

Search for Another Location

Airport:

Trip Planner

Search our weather history database for the weather conditions in past years. The results will help you decide how hot, cold, wet, or windy it might be!

Date:

Astronomy

Jun. 22, 2013 Rise Set
Actual Time 6:08 AM EDT 9:09 PM EDT
Civil Twilight 5:35 AM EDT 9:41 PM EDT
Nautical Twilight 4:54 AM EDT 10:23 PM EDT
Astronomical Twilight 4:05 AM EDT 11:12 PM EDT
Moon 8:22 PM EDT (6/22) 5:20 AM EDT (6/22)
Length of Visible Light 16h 05m
Length of Day
15h 00m
Waxing Gibbous, 99% of the Moon is Illuminated
Jun 22
Waxing Gibbous
Jun 23
Full
Jun 30
Last Quarter
Jul 8
New
Jul 15
First Quarter

Hourly Weather History & Observations

Time (EDT) Temp. Heat Index Dew Point Humidity Pressure Visibility Wind Dir Wind Speed Gust Speed Precip Events Conditions
12:56 AM 75.9 °F - 63.0 °F 64% 30.13 in 10.0 mi South 4.6 mph - N/A   Scattered Clouds
1:56 AM 73.9 °F - 63.0 °F 68% 30.15 in 10.0 mi Calm Calm - N/A   Scattered Clouds
2:56 AM 73.0 °F - 64.0 °F 73% 30.13 in 10.0 mi SSW 5.8 mph - N/A   Clear
3:56 AM 72.0 °F - 64.9 °F 78% 30.12 in 10.0 mi SSW 6.9 mph - N/A   Clear
4:56 AM 72.0 °F - 66.0 °F 81% 30.11 in 9.0 mi SSW 9.2 mph - N/A   Partly Cloudy
5:56 AM 71.1 °F - 66.0 °F 84% 30.12 in 8.0 mi South 9.2 mph - N/A   Partly Cloudy
6:56 AM 71.1 °F - 66.0 °F 84% 30.14 in 7.0 mi SSW 8.1 mph - N/A   Partly Cloudy
7:56 AM 73.0 °F - 66.0 °F 79% 30.15 in 8.0 mi SW 8.1 mph - N/A   Partly Cloudy
8:56 AM 75.9 °F - 68.0 °F 76% 30.16 in 8.0 mi SSW 8.1 mph - N/A   Scattered Clouds
9:56 AM 78.1 °F - 69.1 °F 74% 30.17 in 8.0 mi SSW 10.4 mph - N/A   Mostly Cloudy
10:56 AM 82.0 °F 85.9 °F 70.0 °F 67% 30.16 in 9.0 mi SW 6.9 mph - N/A   Mostly Cloudy
11:56 AM 84.9 °F 89.4 °F 70.0 °F 61% 30.16 in 9.0 mi SW 12.7 mph - N/A   Scattered Clouds
12:34 PM 84.2 °F 88.4 °F 69.8 °F 62% 30.18 in 10.0 mi SW 12.7 mph 16.1 mph N/A   Mostly Cloudy
12:56 PM 86.0 °F 91.5 °F 71.1 °F 61% 30.15 in 9.0 mi SW 11.5 mph - N/A   Mostly Cloudy
1:15 PM 86.0 °F 91.8 °F 71.6 °F 62% 30.17 in 9.0 mi SW 11.5 mph - N/A   Mostly Cloudy
1:42 PM 84.2 °F 88.4 °F 69.8 °F 62% 30.16 in 9.0 mi Variable 6.9 mph - N/A Thunderstorm Thunderstorm
1:56 PM 87.1 °F 92.8 °F 71.1 °F 59% 30.13 in 10.0 mi SSW 11.5 mph 17.3 mph N/A Thunderstorm Thunderstorm
2:17 PM 75.2 °F - 69.8 °F 83% 30.17 in 1.0 mi South 10.4 mph - 0.12 in Rain , Thunderstorm Thunderstorms and Rain
2:33 PM 78.8 °F - 69.8 °F 74% 30.16 in 3.0 mi SSW 10.4 mph - 0.26 in Thunderstorm Unknown
2:51 PM 78.8 °F - 69.8 °F 74% 30.16 in 7.0 mi SSW 3.5 mph - 0.27 in Rain Light Rain
2:56 PM 80.1 °F 83.2 °F 70.0 °F 71% 30.14 in 9.0 mi Calm Calm - 0.27 in Rain Light Rain
3:18 PM 80.6 °F 83.9 °F 69.8 °F 70% 30.16 in 10.0 mi South 3.5 mph - 0.00 in Rain , Thunderstorm Light Thunderstorms and Rain
3:48 PM 80.6 °F 83.9 °F 69.8 °F 70% 30.15 in 10.0 mi SE 4.6 mph - 0.00 in   Partly Cloudy
3:56 PM 81.0 °F 84.4 °F 70.0 °F 69% 30.12 in 10.0 mi East 4.6 mph - 0.00 in   Mostly Cloudy
4:56 PM 82.9 °F 86.5 °F 69.1 °F 63% 30.07 in 9.0 mi South 11.5 mph - N/A   Mostly Cloudy
5:56 PM 84.0 °F 87.0 °F 68.0 °F 58% 30.08 in 9.0 mi SW 12.7 mph - N/A   Mostly Cloudy
6:56 PM 84.0 °F 87.0 °F 68.0 °F 58% 30.06 in 10.0 mi SW 6.9 mph - N/A   Scattered Clouds
7:56 PM 82.0 °F 85.5 °F 69.1 °F 65% 30.06 in 10.0 mi SSW 8.1 mph - N/A   Mostly Cloudy
8:56 PM 80.1 °F 82.7 °F 68.0 °F 67% 30.06 in 10.0 mi SSW 11.5 mph - N/A   Mostly Cloudy
9:56 PM 75.9 °F - 69.1 °F 79% 30.10 in 10.0 mi WSW 5.8 mph - N/A   Scattered Clouds
10:56 PM 75.0 °F - 68.0 °F 79% 30.12 in 10.0 mi Calm Calm - N/A   Partly Cloudy
11:56 PM 73.9 °F - 68.0 °F 82% 30.10 in 9.0 mi South 3.5 mph - N/A   Clear